Tracking 18917 objects as of 16-Jan-2018
HD Live streaming from Space Station
objects crossing your sky now

COSMOS 1796

Track COSMOS 1796 now!
10-day predictions
COSMOS 1796 is classified as:


NORAD ID: 17140
Int'l Code: 1986-092C
Perigee: 1,461.3 km
Apogee: 1,485.3 km
Inclination: 74.0 °
Period: 115.2 minutes
Semi major axis: 7844 km
RCS: 0.7098 m2 (medium)
Launch date: November 21, 1986
Source: Commonwealth of Independent States (former USSR) (CIS)
Launch site: PLESETSK MISSILE AND SPACE COMPLEX (PKMTR)
aabbcc
Your satellite tracking list
Your tracking list is empty




NASA's NSSDC Master Catalog

Two Line Element Set (TLE):
1 17140U 86092C   18016.24084205 -.00000009  00000-0  42849-4 0  9990
2 17140  74.0143  95.2905 0015283   9.0179  45.8597 12.49596095421374
Source of the keplerian elements: AFSPC